Weather History for KDFI - October, 2011

Change the Weather History Date:

Saturday, October 29, 2011

  Actual Average Record
Temperature  
Mean Temperature 43 °F -  
Max Temperature 53 °F 58 °F 78 °F (1946)
Min Temperature 34 °F 36 °F 19 °F (1965)
Degree Days  
Heating Degree Days 22    
Moisture  
Dew Point 33 °F    
Average Humidity 75    
Maximum Humidity 92    
Minimum Humidity 49    
Precipitation  
Precipitation 0.00 in - - ()
Sea Level Pressure  
Sea Level Pressure 30.08 in    
Wind  
Wind Speed 1 mph (WSW)    
Max Wind Speed 15 mph    
Max Gust Speed -    
Visibility 10 miles    
Events Rain    
Averages and records for this station are not official NWS values.
T = Trace of Precipitation, MM = Missing Value Source: NWS Daily Summary

Daily Weather History Graph

Daily Weather History Graph

Search for Another Location

Airport or City:

Trip Planner

Search our weather history database for the weather conditions in past years. The results will help you decide how hot, cold, wet, or windy it might be!

Date:

Astronomy

Oct. 29, 2011 Rise Set
Actual Time 8:05 AM EDT 6:37 PM EDT
Civil Twilight 7:36 AM EDT 7:05 PM EDT
Nautical Twilight 7:04 AM EDT 7:37 PM EDT
Astronomical Twilight 6:32 AM EDT 8:10 PM EDT
Moon 11:28 AM EDT (10/29) 8:57 PM EDT (10/29)
Length of Visible Light 11h 28m
Length of Day
10h 31m
Waxing Crescent, 11% of the Moon is Illuminated
Oct 29
Waxing Crescent
Nov 2
First Quarter
Nov 10
Full
Nov 18
Last Quarter
Nov 25
New

Hourly Weather History & Observations

Time (EDT) Temp. Windchill Dew Point Humidity Pressure Visibility Wind Dir Wind Speed Gust Speed Precip Events Conditions
12:53 AM 42.1 °F - 32.0 °F 67% 30.11 in 10.0 mi Calm Calm - N/A   Overcast
2:53 AM 39.0 °F - 30.9 °F 73% 30.08 in 10.0 mi Calm Calm - N/A   Clear
3:53 AM 35.1 °F - 30.0 °F 82% 30.07 in 10.0 mi Calm Calm - N/A   Clear
4:53 AM 35.1 °F - 30.0 °F 82% 30.07 in 10.0 mi Calm Calm - N/A   Mostly Cloudy
5:53 AM 34.0 °F - 30.9 °F 89% 30.07 in 10.0 mi Calm Calm - N/A   Overcast
6:53 AM 37.0 °F - 33.1 °F 86% 30.07 in 10.0 mi Calm Calm - N/A   Overcast
7:53 AM 37.0 °F - 34.0 °F 89% 30.06 in 9.0 mi Calm Calm - 0.00 in   Overcast
8:53 AM 37.0 °F - 33.1 °F 86% 30.07 in 9.0 mi Calm Calm - N/A   Mostly Cloudy
9:53 AM 42.1 °F - 36.0 °F 79% 30.07 in 10.0 mi Calm Calm - N/A   Partly Cloudy
10:53 AM 45.0 °F 42.6 °F 36.0 °F 71% 30.07 in 10.0 mi SW 4.6 mph - N/A   Mostly Cloudy
11:53 AM 45.0 °F 43.5 °F 37.9 °F 76% 30.08 in 10.0 mi South 3.5 mph - 0.00 in Rain Light Rain
12:53 PM 48.0 °F - 37.0 °F 66% 30.07 in 10.0 mi South 3.5 mph - 0.00 in   Mostly Cloudy
1:53 PM 51.1 °F - 35.1 °F 54% 30.04 in 10.0 mi SW 8.1 mph - N/A   Mostly Cloudy
2:53 PM 52.0 °F - 36.0 °F 54% 30.03 in 10.0 mi Calm Calm - N/A   Mostly Cloudy
3:53 PM 52.0 °F - 33.1 °F 49% 30.02 in 10.0 mi NNE 4.6 mph - 0.00 in Rain Light Rain
4:53 PM 48.9 °F - 35.1 °F 59% 30.06 in 10.0 mi NNW 15.0 mph - N/A   Partly Cloudy
5:53 PM 48.0 °F - 33.1 °F 56% 30.07 in 10.0 mi North 8.1 mph - N/A   Partly Cloudy
6:53 PM 43.0 °F - 35.1 °F 74% 30.10 in 10.0 mi Calm Calm - N/A   Clear
8:53 PM 37.0 °F - 33.1 °F 86% 30.13 in 10.0 mi Calm Calm - N/A   Clear
9:53 PM 35.1 °F - 33.1 °F 92% 30.14 in 9.0 mi Calm Calm - N/A   Clear
10:53 PM 34.0 °F - 30.9 °F 89% 30.15 in 7.0 mi Calm Calm - N/A   Clear
11:53 PM 34.0 °F - 30.0 °F 85% 30.15 in 6.0 mi Calm Calm - N/A   Clear